DELTA 1 DEB, 21365

Orbit data source: Space-Track

DELTA 1 DEB, 21365 is space debris in SSO originally from a launch on Thu, 12 Jun 1975 UTC launched from the Air Force Western Test Range (AFWTR). Debris objects in space refer to the collection of defunct objects orbiting the Earth. Examples of debris include non-operational satellites, rocket bodies, and fragments generated from explosions, collisions, or faulty payload assembly.

Loading next visibility...
Identifier
21365, 1975-052CK
Orbit
SSO
Country
Flag of USUS
Related business
Manufacturer
Unknown
Mission
Spacecraft
Bus & Motor
Unknown
Mass
Unknown
Launch date (UTC)
1975-06-12 (50 years ago)
Launch vehicle
Unknown
Launch site
Air Force Western Test Range (AFWTR)
Object type
Payload
Rocket body
Debris
Shape & HBR
Unknown shape, 0.1 m
Radar Cross Section
Small (<0.1 m²)

Expand to show TLE details & history
Last TLE update: 9 hours ago

TLE from 9 hours ago
0 DELTA 1 DEB
1 21365U 75052CK  25300.21901485 -.00000256  00000-0 -65086-3 0  9999
2 21365  99.7547  25.8772 0230703 345.5906  68.4633 12.98463426631115
Epoch: 2025-10-27T05:15Z
TLE epoch observation values (Epoch: 2025-10-27T05:15:22.883Z)
Latitude
55.40087°
Longitude
-103.14856°
Altitude
1,215.995 km
Speed
7.28 km/s
True Right ascension
00h 46m 04s
True Declination
55° 14' 59"
Sunlit
Object was in full shadow at epoch
Visualization orbit readout
Latitude
Unknown
Longitude
Unknown
Altitude
Unknown
Speed
Unknown
Apparent Right ascension
Unknown
Apparent Declination
Unknown
Sunlit
N/A
Visualization observer readout
Local Sidereal Time
10:00:44
Azimuth
Unknown
Elevation
Unknown
Doppler factor
Unknown
Orbital elements
Apogee altitude
1,441.829 km
Perigee altitude
1,089.147 km
Semi-major axis
7,643.625 km
Eccentricity
0.02307
Inclination
99.7547°
RAAN
25.8772°
Arg. of periapsis
345.5906°
True anomaly
70.94791°
Mean anomaly
68.4633°
Eccentric anomaly
69.70305°
Mean motion
3.24784 °/min
Orbital period
110.84 mins
BSTAR
-0.00065086
Loading maneuver chart data...
Computing Atmospheric mass density...
Loading historical data...
Loading historical data...
Loading historical data...
Loading historical data...
Loading historical data...
Loading historical data...
Loading historical data...

Documentation

Showing up to 5 results
|